Time,TemperatureF,DewpointF,PressureIn,WindDirection,WindDirectionDegrees,WindSpeedMPH,WindSpeedGustMPH,Humidity,HourlyPrecipIn,Conditions,Clouds,dailyrainin,SoftwareType,DateUTC
2013-04-09 00:00:00,63.7,50.0,30.04,SW,236,0.0,1.0,61,0.00,,,0.00,Wunderground v.1.15,2013-04-09 04:00:00,
2013-04-09 00:02:00,63.7,50.0,30.04,SW,236,0.0,1.0,61,0.00,,,0.00,Wunderground v.1.15,2013-04-09 04:02:00,
2013-04-09 00:05:00,63.7,50.0,30.04,SW,236,1.0,1.0,61,0.00,,,0.00,Wunderground v.1.15,2013-04-09 04:05:00,
2013-04-09 00:12:00,63.9,50.2,30.04,SW,236,0.0,1.0,61,0.00,,,0.00,Wunderground v.1.15,2013-04-09 04:12:00,
2013-04-09 00:17:00,63.7,50.0,30.04,SW,236,0.0,2.0,61,0.00,,,0.00,Wunderground v.1.15,2013-04-09 04:17:00,
2013-04-09 00:23:00,63.7,50.0,30.04,SW,236,0.0,1.0,61,0.00,,,0.00,Wunderground v.1.15,2013-04-09 04:23:00,
2013-04-09 00:29:00,63.9,50.2,30.03,SW,236,2.0,3.0,61,0.00,,,0.00,Wunderground v.1.15,2013-04-09 04:29:00,
2013-04-09 00:35:00,63.7,50.0,30.03,SW,236,3.0,4.0,61,0.00,,,0.00,Wunderground v.1.15,2013-04-09 04:35:00,
2013-04-09 00:40:00,63.5,49.8,30.03,SW,236,0.0,1.0,61,0.00,,,0.00,Wunderground v.1.15,2013-04-09 04:40:00,
2013-04-09 00:46:00,63.1,49.9,30.04,SW,236,0.0,1.0,62,0.00,,,0.00,Wunderground v.1.15,2013-04-09 04:46:00,
2013-04-09 00:52:00,63.1,49.9,30.04,SW,236,0.0,0.0,62,0.00,,,0.00,Wunderground v.1.15,2013-04-09 04:52:00,
2013-04-09 00:58:00,63.1,49.9,30.04,SW,236,0.0,0.0,62,0.00,,,0.00,Wunderground v.1.15,2013-04-09 04:58:00,
2013-04-09 01:03:00,63.1,49.9,30.04,SW,236,0.0,0.0,62,0.00,,,0.00,Wunderground v.1.15,2013-04-09 05:03:00,
2013-04-09 01:10:00,62.7,49.9,30.04,SW,236,0.0,1.0,63,0.00,,,0.00,Wunderground v.1.15,2013-04-09 05:10:00,
2013-04-09 01:15:00,63.1,49.9,30.04,SW,236,0.0,2.0,62,0.00,,,0.00,Wunderground v.1.15,2013-04-09 05:15:00,
2013-04-09 01:21:00,63.1,49.9,30.04,SW,236,0.0,0.0,62,0.00,,,0.00,Wunderground v.1.15,2013-04-09 05:21:00,
2013-04-09 01:27:00,63.1,49.9,30.04,SW,236,0.0,2.0,62,0.00,,,0.00,Wunderground v.1.15,2013-04-09 05:27:00,
2013-04-09 01:33:00,63.1,49.9,30.04,SW,236,1.0,1.0,62,0.00,,,0.00,Wunderground v.1.15,2013-04-09 05:33:00,
2013-04-09 01:38:00,62.9,49.7,30.04,SW,236,0.0,1.0,62,0.00,,,0.00,Wunderground v.1.15,2013-04-09 05:38:00,
2013-04-09 01:44:00,62.7,49.9,30.04,SW,236,0.0,0.0,63,0.00,,,0.00,Wunderground v.1.15,2013-04-09 05:44:00,
2013-04-09 01:50:00,62.9,49.7,30.04,SW,235,0.0,3.0,62,0.00,,,0.00,Wunderground v.1.15,2013-04-09 05:50:00,
2013-04-09 01:55:00,62.6,49.8,30.04,SW,235,0.0,1.0,63,0.00,,,0.00,Wunderground v.1.15,2013-04-09 05:55:00,
2013-04-09 02:00:00,62.4,49.6,30.04,SW,235,0.0,0.0,63,0.00,,,0.00,Wunderground v.1.15,2013-04-09 06:00:00,
2013-04-09 02:05:00,62.4,49.6,30.04,SW,235,0.0,2.0,63,0.00,,,0.00,Wunderground v.1.15,2013-04-09 06:05:00,
2013-04-09 02:10:00,62.3,50.0,30.04,SW,235,1.0,1.0,64,0.00,,,0.00,Wunderground v.1.15,2013-04-09 06:10:00,
2013-04-09 02:15:00,62.3,50.0,30.04,SW,235,0.0,1.0,64,0.00,,,0.00,Wunderground v.1.15,2013-04-09 06:15:00,
2013-04-09 02:20:00,62.1,49.8,30.04,SW,235,0.0,0.0,64,0.00,,,0.00,Wunderground v.1.15,2013-04-09 06:20:00,
2013-04-09 02:25:00,62.1,49.8,30.04,SW,235,0.0,1.0,64,0.00,,,0.00,Wunderground v.1.15,2013-04-09 06:25:00,
2013-04-09 02:30:00,62.0,50.1,30.03,SW,235,0.0,0.0,65,0.00,,,0.00,Wunderground v.1.15,2013-04-09 06:30:00,
2013-04-09 02:35:00,61.8,49.9,30.03,SW,235,0.0,2.0,65,0.00,,,0.00,Wunderground v.1.15,2013-04-09 06:35:00,
2013-04-09 02:40:00,61.6,49.7,30.03,SW,235,0.0,0.0,65,0.00,,,0.00,Wunderground v.1.15,2013-04-09 06:40:00,
2013-04-09 02:45:00,61.5,49.6,30.03,SW,235,0.0,1.0,65,0.00,,,0.00,Wunderground v.1.15,2013-04-09 06:45:00,
2013-04-09 02:50:00,61.3,49.8,30.03,SW,235,0.0,0.0,66,0.00,,,0.00,Wunderground v.1.15,2013-04-09 06:50:00,
2013-04-09 02:56:00,61.3,49.4,30.03,SW,235,0.0,0.0,65,0.00,,,0.00,Wunderground v.1.15,2013-04-09 06:56:00,
2013-04-09 03:01:00,61.2,49.7,30.03,SW,235,0.0,0.0,66,0.00,,,0.00,Wunderground v.1.15,2013-04-09 07:01:00,
2013-04-09 03:06:00,61.2,49.7,30.03,SW,235,0.0,1.0,66,0.00,,,0.00,Wunderground v.1.15,2013-04-09 07:06:00,
2013-04-09 03:11:00,61.2,49.7,30.03,SW,235,0.0,0.0,66,0.00,,,0.00,Wunderground v.1.15,2013-04-09 07:11:00,
2013-04-09 03:16:00,61.2,49.7,30.03,SW,235,0.0,0.0,66,0.00,,,0.00,Wunderground v.1.15,2013-04-09 07:16:00,
2013-04-09 03:22:00,61.0,49.6,30.03,SW,235,0.0,0.0,66,0.00,,,0.00,Wunderground v.1.15,2013-04-09 07:22:00,
2013-04-09 03:27:00,61.0,50.0,30.03,SW,235,0.0,1.0,67,0.00,,,0.00,Wunderground v.1.15,2013-04-09 07:27:00,
2013-04-09 03:32:00,61.2,49.7,30.03,SW,235,0.0,1.0,66,0.00,,,0.00,Wunderground v.1.15,2013-04-09 07:32:00,
2013-04-09 03:37:00,61.3,49.8,30.03,SW,235,0.0,1.0,66,0.00,,,0.00,Wunderground v.1.15,2013-04-09 07:37:00,
2013-04-09 03:42:00,61.3,49.8,30.03,SW,235,0.0,0.0,66,0.00,,,0.00,Wunderground v.1.15,2013-04-09 07:42:00,
2013-04-09 03:47:00,61.3,49.8,30.03,SW,235,0.0,0.0,66,0.00,,,0.00,Wunderground v.1.15,2013-04-09 07:47:00,
2013-04-09 03:52:00,61.2,49.7,30.03,SW,235,0.0,0.0,66,0.00,,,0.00,Wunderground v.1.15,2013-04-09 07:52:00,
2013-04-09 03:57:00,61.2,50.2,30.03,SW,235,0.0,1.0,67,0.00,,,0.00,Wunderground v.1.15,2013-04-09 07:57:00,
2013-04-09 04:02:00,61.0,50.0,30.03,SW,235,0.0,0.0,67,0.00,,,0.00,Wunderground v.1.15,2013-04-09 08:02:00,
2013-04-09 04:07:00,61.0,50.0,30.03,SW,235,0.0,0.0,67,0.00,,,0.00,Wunderground v.1.15,2013-04-09 08:07:00,
2013-04-09 04:12:00,61.2,49.7,30.03,SW,235,0.0,0.0,66,0.00,,,0.00,Wunderground v.1.15,2013-04-09 08:12:00,
2013-04-09 04:17:00,61.5,50.0,30.03,SW,235,0.0,0.0,66,0.00,,,0.00,Wunderground v.1.15,2013-04-09 08:17:00,
2013-04-09 04:22:00,61.5,50.0,30.03,SW,235,0.0,0.0,66,0.00,,,0.00,Wunderground v.1.15,2013-04-09 08:22:00,
2013-04-09 04:27:00,61.3,49.8,30.03,SW,235,0.0,0.0,66,0.00,,,0.00,Wunderground v.1.15,2013-04-09 08:27:00,
2013-04-09 04:32:00,61.2,49.7,30.04,SW,235,0.0,0.0,66,0.00,,,0.00,Wunderground v.1.15,2013-04-09 08:32:00,
2013-04-09 04:37:00,61.3,49.8,30.04,SW,235,0.0,1.0,66,0.00,,,0.00,Wunderground v.1.15,2013-04-09 08:37:00,
2013-04-09 04:42:00,61.2,49.7,30.04,SW,235,0.0,0.0,66,0.00,,,0.00,Wunderground v.1.15,2013-04-09 08:42:00,
2013-04-09 04:47:00,61.2,49.7,30.04,SW,235,0.0,0.0,66,0.00,,,0.00,Wunderground v.1.15,2013-04-09 08:47:00,
2013-04-09 04:52:00,61.2,49.7,30.04,SW,235,0.0,0.0,66,0.00,,,0.00,Wunderground v.1.15,2013-04-09 08:52:00,
2013-04-09 04:57:00,61.0,49.6,30.04,SW,235,0.0,0.0,66,0.00,,,0.00,Wunderground v.1.15,2013-04-09 08:57:00,
2013-04-09 05:02:00,61.2,50.2,30.05,SW,235,0.0,0.0,67,0.00,,,0.00,Wunderground v.1.15,2013-04-09 09:02:00,
2013-04-09 05:07:00,61.2,49.7,30.05,SW,235,0.0,0.0,66,0.00,,,0.00,Wunderground v.1.15,2013-04-09 09:07:00,
2013-04-09 05:12:00,61.0,50.0,30.05,SW,235,0.0,0.0,67,0.00,,,0.00,Wunderground v.1.15,2013-04-09 09:12:00,
2013-04-09 05:17:00,60.9,49.9,30.05,SW,235,0.0,0.0,67,0.00,,,0.00,Wunderground v.1.15,2013-04-09 09:17:00,
2013-04-09 05:22:00,60.5,49.5,30.05,SW,235,0.0,0.0,67,0.00,,,0.00,Wunderground v.1.15,2013-04-09 09:22:00,
2013-04-09 05:27:00,60.5,49.9,30.05,SW,235,0.0,0.0,68,0.00,,,0.00,Wunderground v.1.15,2013-04-09 09:27:00,
2013-04-09 05:32:00,60.4,49.8,30.06,SW,235,0.0,0.0,68,0.00,,,0.00,Wunderground v.1.15,2013-04-09 09:32:00,
2013-04-09 05:37:00,60.4,49.8,30.06,SW,235,0.0,0.0,68,0.00,,,0.00,Wunderground v.1.15,2013-04-09 09:37:00,
2013-04-09 05:42:00,60.2,48.8,30.06,SW,235,2.0,3.0,66,0.00,,,0.00,Wunderground v.1.15,2013-04-09 09:42:00,
2013-04-09 05:47:00,60.1,49.9,30.06,SW,235,0.0,3.0,69,0.00,,,0.00,Wunderground v.1.15,2013-04-09 09:47:00,
2013-04-09 05:52:00,59.9,49.7,30.06,SW,235,0.0,1.0,69,0.00,,,0.00,Wunderground v.1.15,2013-04-09 09:52:00,
2013-04-09 05:58:00,59.6,49.8,30.06,SW,235,0.0,1.0,70,0.00,,,0.00,Wunderground v.1.15,2013-04-09 09:58:00,
2013-04-09 06:03:00,59.2,49.8,30.08,SW,235,0.0,0.0,71,0.00,,,0.00,Wunderground v.1.15,2013-04-09 10:03:00,
2013-04-09 06:08:00,58.7,49.7,30.08,SW,235,0.0,0.0,72,0.00,,,0.00,Wunderground v.1.15,2013-04-09 10:08:00,
2013-04-09 06:13:00,58.6,49.6,30.08,SW,235,0.0,0.0,72,0.00,,,0.00,Wunderground v.1.15,2013-04-09 10:13:00,
2013-04-09 06:18:00,58.6,49.6,30.08,SW,235,0.0,0.0,72,0.00,,,0.00,Wunderground v.1.15,2013-04-09 10:18:00,
2013-04-09 06:23:00,58.3,49.7,30.08,SW,235,0.0,1.0,73,0.00,,,0.00,Wunderground v.1.15,2013-04-09 10:23:00,
2013-04-09 06:28:00,58.1,49.5,30.08,SW,235,0.0,1.0,73,0.00,,,0.00,Wunderground v.1.15,2013-04-09 10:28:00,
2013-04-09 06:33:00,58.1,49.5,30.09,SW,235,0.0,0.0,73,0.00,,,0.00,Wunderground v.1.15,2013-04-09 10:33:00,
2013-04-09 06:38:00,58.0,49.8,30.09,SW,235,0.0,1.0,74,0.00,,,0.00,Wunderground v.1.15,2013-04-09 10:38:00,
2013-04-09 06:43:00,57.8,49.9,30.09,SW,235,0.0,0.0,75,0.00,,,0.00,Wunderground v.1.15,2013-04-09 10:43:00,
2013-04-09 06:48:00,57.8,49.9,30.09,SW,235,0.0,2.0,75,0.00,,,0.00,Wunderground v.1.15,2013-04-09 10:48:00,
2013-04-09 06:53:00,57.5,50.0,30.09,WNW,300,0.0,0.0,76,0.00,,,0.00,Wunderground v.1.15,2013-04-09 10:53:00,
2013-04-09 06:58:00,57.0,49.9,30.09,WNW,300,0.0,3.0,77,0.00,,,0.00,Wunderground v.1.15,2013-04-09 10:58:00,
2013-04-09 07:03:00,57.2,50.1,30.09,WNW,300,0.0,3.0,77,0.00,,,0.00,Wunderground v.1.15,2013-04-09 11:03:00,
2013-04-09 07:08:00,57.3,50.1,30.09,WNW,300,0.0,3.0,77,0.00,,,0.00,Wunderground v.1.15,2013-04-09 11:08:00,
2013-04-09 07:13:00,57.2,50.1,30.09,WNW,300,0.0,0.0,77,0.00,,,0.00,Wunderground v.1.15,2013-04-09 11:13:00,
2013-04-09 07:18:00,57.0,49.9,30.10,WNW,300,0.0,0.0,77,0.00,,,0.00,Wunderground v.1.15,2013-04-09 11:18:00,
2013-04-09 07:23:00,56.9,49.8,30.10,WNW,300,0.0,0.0,77,0.00,,,0.00,Wunderground v.1.15,2013-04-09 11:23:00,
2013-04-09 07:28:00,56.7,49.9,30.10,WNW,300,0.0,0.0,78,0.00,,,0.00,Wunderground v.1.15,2013-04-09 11:28:00,
2013-04-09 07:33:00,56.9,50.5,30.11,WNW,300,0.0,0.0,79,0.00,,,0.00,Wunderground v.1.15,2013-04-09 11:33:00,
2013-04-09 07:38:00,57.2,50.7,30.11,WNW,300,0.0,0.0,79,0.00,,,0.00,Wunderground v.1.15,2013-04-09 11:38:00,
2013-04-09 07:43:00,57.5,50.7,30.11,WNW,300,0.0,0.0,78,0.00,,,0.00,Wunderground v.1.15,2013-04-09 11:43:00,
2013-04-09 07:48:00,57.8,51.0,30.11,WNW,300,0.0,0.0,78,0.00,,,0.00,Wunderground v.1.15,2013-04-09 11:48:00,
2013-04-09 07:53:00,58.4,51.6,30.11,WNW,300,0.0,0.0,78,0.00,,,0.00,Wunderground v.1.15,2013-04-09 11:53:00,
2013-04-09 07:58:00,58.9,51.7,30.11,WNW,300,0.0,0.0,77,0.00,,,0.00,Wunderground v.1.15,2013-04-09 11:58:00,
2013-04-09 08:04:00,59.8,52.6,30.11,WNW,300,0.0,0.0,77,0.00,,,0.00,Wunderground v.1.15,2013-04-09 12:04:00,
2013-04-09 08:09:00,60.7,52.4,30.11,WNW,300,0.0,0.0,74,0.00,,,0.00,Wunderground v.1.15,2013-04-09 12:09:00,
2013-04-09 08:14:00,61.3,52.6,30.10,WNW,300,0.0,1.0,73,0.00,,,0.00,Wunderground v.1.15,2013-04-09 12:14:00,
2013-04-09 08:19:00,62.3,52.8,30.10,WNW,300,0.0,1.0,71,0.00,,,0.00,Wunderground v.1.15,2013-04-09 12:19:00,
2013-04-09 08:24:00,62.9,52.2,30.10,WNW,300,0.0,3.0,68,0.00,,,0.00,Wunderground v.1.15,2013-04-09 12:24:00,
2013-04-09 08:29:00,62.7,52.0,30.10,WNW,300,0.0,3.0,68,0.00,,,0.00,Wunderground v.1.15,2013-04-09 12:29:00,
2013-04-09 08:34:00,62.4,52.1,30.10,WNW,300,0.0,4.0,69,0.00,,,0.00,Wunderground v.1.15,2013-04-09 12:34:00,
2013-04-09 08:39:00,62.6,52.3,30.10,WNW,300,0.0,4.0,69,0.00,,,0.00,Wunderground v.1.15,2013-04-09 12:39:00,
2013-04-09 08:44:00,63.1,52.4,30.11,WNW,300,0.0,3.0,68,0.00,,,0.00,Wunderground v.1.15,2013-04-09 12:44:00,
2013-04-09 08:49:00,63.2,52.5,30.11,WNW,300,0.0,3.0,68,0.00,,,0.00,Wunderground v.1.15,2013-04-09 12:49:00,
2013-04-09 08:55:00,63.2,52.1,30.11,WNW,300,2.0,4.0,67,0.00,,,0.00,Wunderground v.1.15,2013-04-09 12:55:00,
2013-04-09 09:00:00,63.4,52.2,30.12,West,281,2.0,2.0,67,0.00,,,0.00,Wunderground v.1.15,2013-04-09 13:00:00,
2013-04-09 09:05:00,63.9,52.3,30.12,West,281,0.0,4.0,66,0.00,,,0.00,Wunderground v.1.15,2013-04-09 13:05:00,
2013-04-09 09:10:00,64.2,52.6,30.12,WSW,241,1.0,3.0,66,0.00,,,0.00,Wunderground v.1.15,2013-04-09 13:10:00,
2013-04-09 09:15:00,63.9,51.9,30.13,SW,231,0.0,3.0,65,0.00,,,0.00,Wunderground v.1.15,2013-04-09 13:15:00,
2013-04-09 09:21:00,64.2,52.6,30.13,SW,231,1.0,1.0,66,0.00,,,0.00,Wunderground v.1.15,2013-04-09 13:21:00,
2013-04-09 09:26:00,64.5,52.5,30.13,South,191,0.0,4.0,65,0.00,,,0.00,Wunderground v.1.15,2013-04-09 13:26:00,
2013-04-09 09:31:00,64.7,52.2,30.13,South,176,0.0,2.0,64,0.00,,,0.00,Wunderground v.1.15,2013-04-09 13:31:00,
2013-04-09 09:36:00,65.0,52.9,30.13,South,176,0.0,4.0,65,0.00,,,0.00,Wunderground v.1.15,2013-04-09 13:36:00,
2013-04-09 09:42:00,65.0,52.5,30.13,South,176,0.0,1.0,64,0.00,,,0.00,Wunderground v.1.15,2013-04-09 13:42:00,
2013-04-09 09:47:00,65.0,52.1,30.14,South,176,3.0,5.0,63,0.00,,,0.00,Wunderground v.1.15,2013-04-09 13:47:00,
2013-04-09 09:52:00,65.2,52.3,30.14,South,176,1.0,5.0,63,0.00,,,0.00,Wunderground v.1.15,2013-04-09 13:52:00,
2013-04-09 09:57:00,65.8,52.9,30.14,SSE,153,1.0,7.0,63,0.00,,,0.00,Wunderground v.1.15,2013-04-09 13:57:00,
2013-04-09 10:02:00,66.0,53.0,30.14,SSE,153,1.0,6.0,63,0.00,,,0.00,Wunderground v.1.15,2013-04-09 14:02:00,
2013-04-09 10:07:00,66.3,53.3,30.14,ESE,120,4.0,6.0,63,0.00,,,0.00,Wunderground v.1.15,2013-04-09 14:07:00,
2013-04-09 10:12:00,66.8,53.8,30.14,ESE,120,5.0,5.0,63,0.00,,,0.00,Wunderground v.1.15,2013-04-09 14:12:00,
2013-04-09 10:17:00,66.9,53.5,30.14,ESE,115,4.0,7.0,62,0.00,,,0.00,Wunderground v.1.15,2013-04-09 14:17:00,
2013-04-09 10:22:00,67.3,53.8,30.14,ESE,119,4.0,5.0,62,0.00,,,0.00,Wunderground v.1.15,2013-04-09 14:22:00,
2013-04-09 10:27:00,67.1,52.7,30.14,SE,130,4.0,8.0,60,0.00,,,0.00,Wunderground v.1.15,2013-04-09 14:27:00,
2013-04-09 10:32:00,67.1,53.6,30.14,ESE,119,4.0,6.0,62,0.00,,,0.00,Wunderground v.1.15,2013-04-09 14:32:00,
2013-04-09 10:37:00,66.4,53.0,30.14,SE,138,1.0,6.0,62,0.00,,,0.00,Wunderground v.1.15,2013-04-09 14:37:00,
2013-04-09 10:42:00,66.0,52.6,30.14,ESE,107,3.0,6.0,62,0.00,,,0.00,Wunderground v.1.15,2013-04-09 14:42:00,
2013-04-09 10:47:00,65.8,53.3,30.15,ESE,108,3.0,6.0,64,0.00,,,0.00,Wunderground v.1.15,2013-04-09 14:47:00,
2013-04-09 10:52:00,65.8,52.9,30.15,SE,127,4.0,7.0,63,0.00,,,0.00,Wunderground v.1.15,2013-04-09 14:52:00,
2013-04-09 10:58:00,66.1,53.6,30.15,ESE,102,9.0,9.0,64,0.00,,,0.00,Wunderground v.1.15,2013-04-09 14:58:00,
2013-04-09 11:03:00,67.1,54.1,30.15,ESE,104,5.0,7.0,63,0.00,,,0.00,Wunderground v.1.15,2013-04-09 15:03:00,
2013-04-09 11:08:00,66.8,53.4,30.15,SE,128,5.0,10.0,62,0.00,,,0.00,Wunderground v.1.15,2013-04-09 15:08:00,
2013-04-09 11:13:00,67.3,54.3,30.15,SE,132,6.0,7.0,63,0.00,,,0.00,Wunderground v.1.15,2013-04-09 15:13:00,
2013-04-09 11:18:00,67.6,54.1,30.16,SE,124,0.0,8.0,62,0.00,,,0.00,Wunderground v.1.15,2013-04-09 15:18:00,
2013-04-09 11:23:00,67.3,53.4,30.16,ESE,121,3.0,6.0,61,0.00,,,0.00,Wunderground v.1.15,2013-04-09 15:23:00,
2013-04-09 11:28:00,67.6,54.1,30.16,ESE,122,1.0,6.0,62,0.00,,,0.00,Wunderground v.1.15,2013-04-09 15:28:00,
2013-04-09 11:33:00,68.3,54.3,30.16,SE,124,3.0,5.0,61,0.00,,,0.00,Wunderground v.1.15,2013-04-09 15:33:00,
2013-04-09 11:38:00,68.3,53.9,30.16,SE,139,0.0,9.0,60,0.00,,,0.00,Wunderground v.1.15,2013-04-09 15:38:00,
2013-04-09 11:43:00,67.9,54.0,30.16,SSE,152,0.0,10.0,61,0.00,,,0.00,Wunderground v.1.15,2013-04-09 15:43:00,
2013-04-09 11:48:00,68.1,54.6,30.17,SE,141,5.0,10.0,62,0.00,,,0.00,Wunderground v.1.15,2013-04-09 15:48:00,
2013-04-09 11:53:00,68.9,54.4,30.17,SE,136,3.0,6.0,60,0.00,,,0.00,Wunderground v.1.15,2013-04-09 15:53:00,
2013-04-09 11:59:00,69.9,54.9,30.17,SE,136,0.0,7.0,59,0.00,,,0.00,Wunderground v.1.15,2013-04-09 15:59:00,
2013-04-09 12:04:00,70.4,54.9,30.17,SE,135,6.0,10.0,58,0.00,,,0.00,Wunderground v.1.15,2013-04-09 16:04:00,
2013-04-09 12:09:00,70.4,54.4,30.17,ESE,111,6.0,11.0,57,0.00,,,0.00,Wunderground v.1.15,2013-04-09 16:09:00,
2013-04-09 12:14:00,70.9,54.9,30.16,SE,141,5.0,12.0,57,0.00,,,0.00,Wunderground v.1.15,2013-04-09 16:14:00,
2013-04-09 12:19:00,71.5,55.5,30.16,SE,129,2.0,13.0,57,0.00,,,0.00,Wunderground v.1.15,2013-04-09 16:19:00,
2013-04-09 12:24:00,72.5,54.9,30.16,South,170,1.0,14.0,54,0.00,,,0.00,Wunderground v.1.15,2013-04-09 16:24:00,
2013-04-09 12:29:00,73.2,57.1,30.15,SE,133,5.0,14.0,57,0.00,,,0.00,Wunderground v.1.15,2013-04-09 16:29:00,
2013-04-09 12:34:00,72.5,54.4,30.15,SE,143,10.0,12.0,53,0.00,,,0.00,Wunderground v.1.15,2013-04-09 16:34:00,
2013-04-09 12:39:00,72.8,55.2,30.15,SSE,155,5.0,14.0,54,0.00,,,0.00,Wunderground v.1.15,2013-04-09 16:39:00,
2013-04-09 12:44:00,73.3,56.2,30.15,SE,145,9.0,15.0,55,0.00,,,0.00,Wunderground v.1.15,2013-04-09 16:44:00,
2013-04-09 12:49:00,74.0,55.8,30.15,SE,143,3.0,15.0,53,0.00,,,0.00,Wunderground v.1.15,2013-04-09 16:49:00,
2013-04-09 12:54:00,74.6,56.3,30.15,SSE,164,3.0,15.0,53,0.00,,,0.00,Wunderground v.1.15,2013-04-09 16:54:00,
2013-04-09 13:00:00,75.1,54.6,30.15,SSW,209,0.0,15.0,49,0.00,,,0.00,Wunderground v.1.15,2013-04-09 17:00:00,
2013-04-09 13:05:00,73.9,54.6,30.15,SSE,152,6.0,9.0,51,0.00,,,0.00,Wunderground v.1.15,2013-04-09 17:05:00,
2013-04-09 13:10:00,73.0,54.9,30.15,SE,128,10.0,10.0,53,0.00,,,0.00,Wunderground v.1.15,2013-04-09 17:10:00,
2013-04-09 13:15:00,73.3,55.1,30.14,SE,144,4.0,13.0,53,0.00,,,0.00,Wunderground v.1.15,2013-04-09 17:15:00,
2013-04-09 13:20:00,72.5,54.9,30.14,SE,138,3.0,7.0,54,0.00,,,0.00,Wunderground v.1.15,2013-04-09 17:20:00,
2013-04-09 13:25:00,73.2,55.6,30.14,South,191,0.0,14.0,54,0.00,,,0.00,Wunderground v.1.15,2013-04-09 17:25:00,
2013-04-09 13:30:00,73.2,55.0,30.14,SE,136,10.0,10.0,53,0.00,,,0.00,Wunderground v.1.15,2013-04-09 17:30:00,
2013-04-09 13:35:00,72.5,55.4,30.14,SE,131,6.0,14.0,55,0.00,,,0.00,Wunderground v.1.15,2013-04-09 17:35:00,
2013-04-09 13:40:00,72.7,55.1,30.14,SE,138,9.0,10.0,54,0.00,,,0.00,Wunderground v.1.15,2013-04-09 17:40:00,
2013-04-09 13:45:00,73.9,55.2,30.13,SE,137,12.0,12.0,52,0.00,,,0.00,Wunderground v.1.15,2013-04-09 17:45:00,
2013-04-09 13:50:00,74.0,55.8,30.13,SSE,168,2.0,7.0,53,0.00,,,0.00,Wunderground v.1.15,2013-04-09 17:50:00,
2013-04-09 13:55:00,74.7,55.4,30.13,SSE,156,3.0,11.0,51,0.00,,,0.00,Wunderground v.1.15,2013-04-09 17:55:00,
2013-04-09 14:00:00,75.3,55.9,30.12,SSE,153,6.0,6.0,51,0.00,,,0.00,Wunderground v.1.15,2013-04-09 18:00:00,
2013-04-09 14:05:00,75.3,55.4,30.12,ESE,115,13.0,14.0,50,0.00,,,0.00,Wunderground v.1.15,2013-04-09 18:05:00,
2013-04-09 14:10:00,74.9,56.1,30.12,SW,219,2.0,7.0,52,0.00,,,0.00,Wunderground v.1.15,2013-04-09 18:10:00,
2013-04-09 14:15:00,75.6,56.7,30.12,SE,131,0.0,12.0,52,0.00,,,0.00,Wunderground v.1.15,2013-04-09 18:15:00,
2013-04-09 14:20:00,76.5,56.5,30.12,SW,223,4.0,7.0,50,0.00,,,0.00,Wunderground v.1.15,2013-04-09 18:20:00,
2013-04-09 14:25:00,76.7,56.1,30.12,SE,136,8.0,8.0,49,0.00,,,0.00,Wunderground v.1.15,2013-04-09 18:25:00,
2013-04-09 14:30:00,76.3,55.2,30.12,SE,141,2.0,11.0,48,0.00,,,0.00,Wunderground v.1.15,2013-04-09 18:30:00,
2013-04-09 14:36:00,76.5,55.3,30.12,SSE,152,6.0,11.0,48,0.00,,,0.00,Wunderground v.1.15,2013-04-09 18:36:00,
2013-04-09 14:41:00,76.7,55.0,30.12,SE,136,12.0,14.0,47,0.00,,,0.00,Wunderground v.1.15,2013-04-09 18:41:00,
2013-04-09 14:47:00,76.3,55.2,30.10,SE,146,10.0,14.0,48,0.00,,,0.00,Wunderground v.1.15,2013-04-09 18:47:00,
2013-04-09 14:52:00,75.8,55.8,30.10,South,172,5.0,5.0,50,0.00,,,0.00,Wunderground v.1.15,2013-04-09 18:52:00,
2013-04-09 14:57:00,75.8,55.8,30.10,South,172,4.0,13.0,50,0.00,,,0.00,Wunderground v.1.15,2013-04-09 18:57:00,
2013-04-09 15:02:00,75.3,55.4,30.10,SE,134,9.0,14.0,50,0.00,,,0.00,Wunderground v.1.15,2013-04-09 19:02:00,
2013-04-09 15:07:00,76.0,55.5,30.10,SE,135,11.0,19.0,49,0.00,,,0.00,Wunderground v.1.15,2013-04-09 19:07:00,
2013-04-09 15:12:00,76.1,55.5,30.10,SSW,195,3.0,13.0,49,0.00,,,0.00,Wunderground v.1.15,2013-04-09 19:12:00,
2013-04-09 15:18:00,77.0,55.8,30.10,SW,217,6.0,13.0,48,0.00,,,0.00,Wunderground v.1.15,2013-04-09 19:18:00,
2013-04-09 15:23:00,77.2,55.4,30.10,SE,135,11.0,14.0,47,0.00,,,0.00,Wunderground v.1.15,2013-04-09 19:23:00,
2013-04-09 15:28:00,76.1,55.0,30.10,SE,146,10.0,14.0,48,0.00,,,0.00,Wunderground v.1.15,2013-04-09 19:28:00,
2013-04-09 15:33:00,76.7,56.1,30.08,SE,136,7.0,10.0,49,0.00,,,0.00,Wunderground v.1.15,2013-04-09 19:33:00,
2013-04-09 15:38:00,76.1,55.5,30.08,SE,132,8.0,20.0,49,0.00,,,0.00,Wunderground v.1.15,2013-04-09 19:38:00,
2013-04-09 15:43:00,76.3,55.7,30.08,SE,131,7.0,15.0,49,0.00,,,0.00,Wunderground v.1.15,2013-04-09 19:43:00,
2013-04-09 15:48:00,76.1,55.0,30.08,SSE,160,3.0,15.0,48,0.00,,,0.00,Wunderground v.1.15,2013-04-09 19:48:00,
2013-04-09 15:53:00,75.4,54.3,30.08,SE,137,10.0,17.0,48,0.00,,,0.00,Wunderground v.1.15,2013-04-09 19:53:00,
2013-04-09 15:58:00,75.3,55.4,30.08,ESE,121,10.0,17.0,50,0.00,,,0.00,Wunderground v.1.15,2013-04-09 19:58:00,
2013-04-09 16:03:00,75.1,54.6,30.07,SE,136,5.0,17.0,49,0.00,,,0.00,Wunderground v.1.15,2013-04-09 20:03:00,
2013-04-09 16:08:00,76.0,54.9,30.07,SSE,154,4.0,17.0,48,0.00,,,0.00,Wunderground v.1.15,2013-04-09 20:08:00,
2013-04-09 16:13:00,76.3,54.6,30.07,South,185,3.0,16.0,47,0.00,,,0.00,Wunderground v.1.15,2013-04-09 20:13:00,
2013-04-09 16:18:00,76.1,55.0,30.07,SE,140,7.0,16.0,48,0.00,,,0.00,Wunderground v.1.15,2013-04-09 20:18:00,
2013-04-09 16:23:00,76.5,55.3,30.07,South,190,4.0,14.0,48,0.00,,,0.00,Wunderground v.1.15,2013-04-09 20:23:00,
2013-04-09 16:28:00,76.5,54.8,30.07,SSE,159,0.0,15.0,47,0.00,,,0.00,Wunderground v.1.15,2013-04-09 20:28:00,
2013-04-09 16:33:00,76.1,54.4,30.07,South,181,4.0,16.0,47,0.00,,,0.00,Wunderground v.1.15,2013-04-09 20:33:00,
2013-04-09 16:38:00,75.1,54.1,30.07,SSW,193,10.0,18.0,48,0.00,,,0.00,Wunderground v.1.15,2013-04-09 20:38:00,
2013-04-09 16:43:00,74.7,54.3,30.07,SE,131,11.0,11.0,49,0.00,,,0.00,Wunderground v.1.15,2013-04-09 20:43:00,
2013-04-09 16:48:00,74.6,54.2,30.06,SE,146,3.0,16.0,49,0.00,,,0.00,Wunderground v.1.15,2013-04-09 20:48:00,
2013-04-09 16:53:00,74.9,54.4,30.06,WSW,250,4.0,7.0,49,0.00,,,0.00,Wunderground v.1.15,2013-04-09 20:53:00,
2013-04-09 16:58:00,75.4,54.3,30.06,SE,125,6.0,9.0,48,0.00,,,0.00,Wunderground v.1.15,2013-04-09 20:58:00,
2013-04-09 17:03:00,75.4,54.3,30.06,SE,131,2.0,14.0,48,0.00,,,0.00,Wunderground v.1.15,2013-04-09 21:03:00,
2013-04-09 17:08:00,75.4,54.3,30.06,SE,140,4.0,15.0,48,0.00,,,0.00,Wunderground v.1.15,2013-04-09 21:08:00,
2013-04-09 17:13:00,75.6,53.4,30.06,South,181,0.0,8.0,46,0.00,,,0.00,Wunderground v.1.15,2013-04-09 21:13:00,
2013-04-09 17:18:00,75.4,53.2,30.06,SSE,157,4.0,15.0,46,0.00,,,0.00,Wunderground v.1.15,2013-04-09 21:18:00,
2013-04-09 17:23:00,75.6,54.5,30.06,SE,137,15.0,15.0,48,0.00,,,0.00,Wunderground v.1.15,2013-04-09 21:23:00,
2013-04-09 17:28:00,75.6,54.5,30.06,SE,138,9.0,15.0,48,0.00,,,0.00,Wunderground v.1.15,2013-04-09 21:28:00,
2013-04-09 17:33:00,76.0,54.3,30.06,SSE,150,5.0,12.0,47,0.00,,,0.00,Wunderground v.1.15,2013-04-09 21:33:00,
2013-04-09 17:38:00,76.1,53.8,30.06,SSE,155,4.0,12.0,46,0.00,,,0.00,Wunderground v.1.15,2013-04-09 21:38:00,
2013-04-09 17:43:00,76.3,54.0,30.06,SE,134,6.0,14.0,46,0.00,,,0.00,Wunderground v.1.15,2013-04-09 21:43:00,
2013-04-09 17:48:00,76.3,53.4,30.06,SE,144,2.0,14.0,45,0.00,,,0.00,Wunderground v.1.15,2013-04-09 21:48:00,
2013-04-09 17:53:00,75.8,53.5,30.06,SSE,148,5.0,13.0,46,0.00,,,0.00,Wunderground v.1.15,2013-04-09 21:53:00,
2013-04-09 17:58:00,75.3,54.8,30.06,SE,137,3.0,13.0,49,0.00,,,0.00,Wunderground v.1.15,2013-04-09 21:58:00,
2013-04-09 18:03:00,75.3,54.3,30.06,SE,143,5.0,14.0,48,0.00,,,0.00,Wunderground v.1.15,2013-04-09 22:03:00,
2013-04-09 18:09:00,75.1,54.6,30.06,SE,145,9.0,15.0,49,0.00,,,0.00,Wunderground v.1.15,2013-04-09 22:09:00,
2013-04-09 18:14:00,74.7,54.3,30.05,SSE,152,10.0,14.0,49,0.00,,,0.00,Wunderground v.1.15,2013-04-09 22:14:00,
2013-04-09 18:19:00,74.6,54.2,30.05,SE,127,5.0,14.0,49,0.00,,,0.00,Wunderground v.1.15,2013-04-09 22:19:00,
2013-04-09 18:24:00,74.4,54.0,30.05,SW,216,3.0,11.0,49,0.00,,,0.00,Wunderground v.1.15,2013-04-09 22:24:00,
2013-04-09 18:29:00,74.2,53.8,30.05,SSE,162,4.0,19.0,49,0.00,,,0.00,Wunderground v.1.15,2013-04-09 22:29:00,
2013-04-09 18:34:00,74.2,53.8,30.05,SE,139,7.0,10.0,49,0.00,,,0.00,Wunderground v.1.15,2013-04-09 22:34:00,
2013-04-09 18:39:00,74.0,53.6,30.05,SSE,166,0.0,13.0,49,0.00,,,0.00,Wunderground v.1.15,2013-04-09 22:39:00,
2013-04-09 18:45:00,74.0,53.1,30.04,SE,141,4.0,10.0,48,0.00,,,0.00,Wunderground v.1.15,2013-04-09 22:45:00,
2013-04-09 18:50:00,73.9,53.5,30.04,SE,137,3.0,4.0,49,0.00,,,0.00,Wunderground v.1.15,2013-04-09 22:50:00,
2013-04-09 18:55:00,73.9,53.0,30.04,SE,143,3.0,10.0,48,0.00,,,0.00,Wunderground v.1.15,2013-04-09 22:55:00,
2013-04-09 19:00:00,73.9,53.5,30.03,SE,142,4.0,4.0,49,0.00,,,0.00,Wunderground v.1.15,2013-04-09 23:00:00,
2013-04-09 19:05:00,73.9,53.5,30.03,SE,134,4.0,17.0,49,0.00,,,0.00,Wunderground v.1.15,2013-04-09 23:05:00,
2013-04-09 19:10:00,73.9,54.1,30.03,SSE,158,6.0,8.0,50,0.00,,,0.00,Wunderground v.1.15,2013-04-09 23:10:00,
2013-04-09 19:15:00,73.7,53.9,30.02,SE,129,8.0,11.0,50,0.00,,,0.00,Wunderground v.1.15,2013-04-09 23:15:00,
2013-04-09 19:20:00,73.5,53.7,30.02,SSE,153,6.0,6.0,50,0.00,,,0.00,Wunderground v.1.15,2013-04-09 23:20:00,
2013-04-09 19:25:00,73.3,53.5,30.02,SE,130,0.0,6.0,50,0.00,,,0.00,Wunderground v.1.15,2013-04-09 23:25:00,
2013-04-09 19:30:00,73.2,53.4,30.03,SE,139,5.0,5.0,50,0.00,,,0.00,Wunderground v.1.15,2013-04-09 23:30:00,
2013-04-09 19:35:00,73.0,53.3,30.03,SSE,151,5.0,11.0,50,0.00,,,0.00,Wunderground v.1.15,2013-04-09 23:35:00,
2013-04-09 19:40:00,72.8,53.6,30.03,SSE,150,0.0,5.0,51,0.00,,,0.00,Wunderground v.1.15,2013-04-09 23:40:00,
2013-04-09 19:45:00,72.3,53.2,30.03,SSE,150,0.0,5.0,51,0.00,,,0.00,Wunderground v.1.15,2013-04-09 23:45:00,
2013-04-09 19:50:00,72.0,53.4,30.03,SSE,150,0.0,1.0,52,0.00,,,0.00,Wunderground v.1.15,2013-04-09 23:50:00,
2013-04-09 19:55:00,71.5,52.9,30.03,SSE,150,0.0,3.0,52,0.00,,,0.00,Wunderground v.1.15,2013-04-09 23:55:00,
2013-04-09 20:00:00,71.1,53.1,30.04,SSE,150,0.0,0.0,53,0.00,,,0.00,Wunderground v.1.15,2013-04-10 00:00:00,
2013-04-09 20:05:00,70.8,52.8,30.04,SSE,150,3.0,5.0,53,0.00,,,0.00,Wunderground v.1.15,2013-04-10 00:05:00,
2013-04-09 20:10:00,70.6,52.6,30.04,SSE,150,0.0,1.0,53,0.00,,,0.00,Wunderground v.1.15,2013-04-10 00:10:00,
2013-04-09 20:15:00,70.6,52.6,30.04,SSE,150,0.0,4.0,53,0.00,,,0.00,Wunderground v.1.15,2013-04-10 00:15:00,
2013-04-09 20:20:00,70.6,52.6,30.04,SSE,150,0.0,1.0,53,0.00,,,0.00,Wunderground v.1.15,2013-04-10 00:20:00,
2013-04-09 20:25:00,70.4,52.4,30.04,SSE,150,0.0,3.0,53,0.00,,,0.00,Wunderground v.1.15,2013-04-10 00:25:00,
2013-04-09 20:30:00,70.3,52.4,30.04,SSE,150,0.0,1.0,53,0.00,,,0.00,Wunderground v.1.15,2013-04-10 00:30:00,
2013-04-09 20:35:00,70.1,52.2,30.04,SSE,150,0.0,3.0,53,0.00,,,0.00,Wunderground v.1.15,2013-04-10 00:35:00,
2013-04-09 20:40:00,69.9,52.0,30.04,SSE,150,0.0,0.0,53,0.00,,,0.00,Wunderground v.1.15,2013-04-10 00:40:00,
2013-04-09 20:45:00,69.8,52.4,30.04,SSE,150,0.0,1.0,54,0.00,,,0.00,Wunderground v.1.15,2013-04-10 00:45:00,
2013-04-09 20:50:00,69.6,52.2,30.04,SSE,150,0.0,0.0,54,0.00,,,0.00,Wunderground v.1.15,2013-04-10 00:50:00,
2013-04-09 20:55:00,69.4,52.0,30.04,SSE,150,0.0,0.0,54,0.00,,,0.00,Wunderground v.1.15,2013-04-10 00:55:00,
2013-04-09 21:00:00,69.3,52.4,30.05,SSE,150,0.0,0.0,55,0.00,,,0.00,Wunderground v.1.15,2013-04-10 01:00:00,
2013-04-09 21:05:00,69.1,52.2,30.05,SSE,150,0.0,1.0,55,0.00,,,0.00,Wunderground v.1.15,2013-04-10 01:05:00,
2013-04-09 21:10:00,69.1,52.2,30.05,SSE,150,0.0,0.0,55,0.00,,,0.00,Wunderground v.1.15,2013-04-10 01:10:00,
2013-04-09 21:15:00,69.1,52.2,30.06,SSE,150,0.0,0.0,55,0.00,,,0.00,Wunderground v.1.15,2013-04-10 01:15:00,
2013-04-09 21:20:00,69.1,52.2,30.06,SSE,150,0.0,0.0,55,0.00,,,0.00,Wunderground v.1.15,2013-04-10 01:20:00,
2013-04-09 21:25:00,69.1,51.8,30.06,SSE,150,0.0,3.0,54,0.00,,,0.00,Wunderground v.1.15,2013-04-10 01:25:00,
2013-04-09 21:30:00,68.9,52.6,30.05,SSE,150,1.0,1.0,56,0.00,,,0.00,Wunderground v.1.15,2013-04-10 01:30:00,
2013-04-09 21:35:00,68.8,52.0,30.05,SW,218,0.0,4.0,55,0.00,,,0.00,Wunderground v.1.15,2013-04-10 01:35:00,
2013-04-09 21:40:00,68.8,52.0,30.05,SW,218,0.0,0.0,55,0.00,,,0.00,Wunderground v.1.15,2013-04-10 01:40:00,
2013-04-09 21:45:00,68.6,51.8,30.06,SW,218,0.0,4.0,55,0.00,,,0.00,Wunderground v.1.15,2013-04-10 01:45:00,
2013-04-09 21:50:00,68.3,52.0,30.06,SW,218,0.0,0.0,56,0.00,,,0.00,Wunderground v.1.15,2013-04-10 01:50:00,
2013-04-09 21:55:00,68.1,51.8,30.06,SW,218,0.0,1.0,56,0.00,,,0.00,Wunderground v.1.15,2013-04-10 01:55:00,
2013-04-09 22:00:00,68.1,51.8,30.06,SW,218,0.0,1.0,56,0.00,,,0.00,Wunderground v.1.15,2013-04-10 02:00:00,
2013-04-09 22:05:00,68.3,52.0,30.06,SW,218,1.0,2.0,56,0.00,,,0.00,Wunderground v.1.15,2013-04-10 02:05:00,
2013-04-09 22:10:00,68.4,52.1,30.06,SW,218,0.0,0.0,56,0.00,,,0.00,Wunderground v.1.15,2013-04-10 02:10:00,
2013-04-09 22:15:00,68.4,52.1,30.07,SW,218,0.0,3.0,56,0.00,,,0.00,Wunderground v.1.15,2013-04-10 02:15:00,
2013-04-09 22:20:00,68.4,52.1,30.07,SW,218,0.0,1.0,56,0.00,,,0.00,Wunderground v.1.15,2013-04-10 02:20:00,
2013-04-09 22:25:00,68.6,52.3,30.07,SW,214,0.0,6.0,56,0.00,,,0.00,Wunderground v.1.15,2013-04-10 02:25:00,
2013-04-09 22:30:00,68.4,52.1,30.07,SW,214,0.0,1.0,56,0.00,,,0.00,Wunderground v.1.15,2013-04-10 02:30:00,
2013-04-09 22:35:00,68.3,52.0,30.07,SW,214,3.0,4.0,56,0.00,,,0.00,Wunderground v.1.15,2013-04-10 02:35:00,
2013-04-09 22:40:00,68.3,52.0,30.07,SW,214,0.0,1.0,56,0.00,,,0.00,Wunderground v.1.15,2013-04-10 02:40:00,
2013-04-09 22:45:00,68.3,52.0,30.07,SW,214,0.0,4.0,56,0.00,,,0.00,Wunderground v.1.15,2013-04-10 02:45:00,
2013-04-09 22:50:00,68.1,51.8,30.07,SW,214,0.0,0.0,56,0.00,,,0.00,Wunderground v.1.15,2013-04-10 02:50:00,
2013-04-09 22:55:00,68.3,52.0,30.07,SW,214,2.0,4.0,56,0.00,,,0.00,Wunderground v.1.15,2013-04-10 02:55:00,
2013-04-09 23:01:00,68.4,52.1,30.07,SSW,206,2.0,2.0,56,0.00,,,0.00,Wunderground v.1.15,2013-04-10 03:01:00,
2013-04-09 23:06:00,68.3,52.0,30.07,SSW,206,3.0,4.0,56,0.00,,,0.00,Wunderground v.1.15,2013-04-10 03:06:00,
2013-04-09 23:11:00,68.3,52.0,30.07,SSW,204,0.0,2.0,56,0.00,,,0.00,Wunderground v.1.15,2013-04-10 03:11:00,
2013-04-09 23:16:00,68.1,51.8,30.07,SSE,167,0.0,5.0,56,0.00,,,0.00,Wunderground v.1.15,2013-04-10 03:16:00,
2013-04-09 23:21:00,67.9,51.6,30.07,South,174,2.0,4.0,56,0.00,,,0.00,Wunderground v.1.15,2013-04-10 03:21:00,
2013-04-09 23:26:00,67.8,52.0,30.07,South,174,2.0,4.0,57,0.00,,,0.00,Wunderground v.1.15,2013-04-10 03:26:00,
2013-04-09 23:31:00,67.6,51.8,30.06,South,174,0.0,1.0,57,0.00,,,0.00,Wunderground v.1.15,2013-04-10 03:31:00,
2013-04-09 23:36:00,67.9,51.6,30.06,South,181,3.0,5.0,56,0.00,,,0.00,Wunderground v.1.15,2013-04-10 03:36:00,
2013-04-09 23:41:00,68.1,51.8,30.06,South,180,0.0,1.0,56,0.00,,,0.00,Wunderground v.1.15,2013-04-10 03:41:00,
2013-04-09 23:47:00,67.6,51.8,30.06,South,181,0.0,2.0,57,0.00,,,0.00,Wunderground v.1.15,2013-04-10 03:47:00,
2013-04-09 23:52:00,67.3,51.5,30.06,South,180,0.0,3.0,57,0.00,,,0.00,Wunderground v.1.15,2013-04-10 03:52:00,
2013-04-09 23:57:00,67.6,51.8,30.06,South,181,0.0,5.0,57,0.00,,,0.00,Wunderground v.1.15,2013-04-10 03:57:00,